FENGYUN 1C DEB, 37006

Orbit data source: Space-Track

FENGYUN 1C DEB, 37006 is space debris in SSO originally from a launch on Mon, 10 May 1999 UTC launched from the Taiyaun Space Center, China (TSC). Fengyun 1C debris stems from the Chinese weather satellite Fengyun-1C, which was intentionally destroyed by a Chinese anti-satellite missile in 2007. This event dramatically increased the amount of space debris, with thousands of trackable fragments posing hazards to satellites and human spaceflight. The Fengyun 1C debris cloud has become a focal point in discussions about space sustainability and the need for international regulations to prevent the creation of new debris.

Loading next visibility...
Identifier
37006, 1999-025ECN
Orbit
SSO
Country
Flag of CNCN / PRC
Related business
Manufacturer
Unknown
Mission
Spacecraft
Bus & Motor
Unknown
Mass
Unknown
Launch date (UTC)
1999-05-10 (27 years ago)
Launch vehicle
Unknown
Launch site
Taiyaun Space Center, China (TSC)
Object type
Payload
Rocket body
Debris
Shape & HBR
Unknown shape, 0.1 m
Radar Cross Section
Small (<0.1 m²)

Expand to show TLE details & history
Last TLE update: 5 days ago

TLE from 5 days ago
0 FENGYUN 1C DEB
1 37006U 99025ECN 26167.47997973  .00003703  00000-0  64035-3 0  9992
2 37006  99.2868  80.1242 0252947  56.0778 306.4188 14.50241997678057
Epoch: 2026-06-16T11:31Z
TLE epoch observation values (Epoch: 2026-06-16T11:31:10.248Z)
Latitude
-0.00007°
Longitude
2.5801°
Altitude
624.118 km
Speed
7.601 km/s
True Right ascension
05h 20m 29s
True Declination
0° 00' 00"
Sunlit
Object was in daylight at epoch
Visualization orbit readout
Latitude
Unknown
Longitude
Unknown
Altitude
Unknown
Speed
Unknown
Apparent Right ascension
Unknown
Apparent Declination
Unknown
Sunlit
N/A
Visualization observer readout
Local Sidereal Time
00:02:30
Azimuth
Unknown
Elevation
Unknown
Doppler factor
Unknown
Orbital elements
Apogee altitude
901.599 km
Perigee altitude
542.407 km
Semi-major axis
7,100.14 km
Eccentricity
0.02529
Inclination
99.2868°
RAAN
80.1242°
Arg. of periapsis
56.0778°
True anomaly
304.04243°
Mean anomaly
306.4188°
Eccentric anomaly
305.23504°
Mean motion
3.6278 °/min
Orbital period
99.23 mins
BSTAR
0.00064035
Loading maneuver chart data...
Computing Atmospheric mass density...

Documentation

Showing up to 5 results
|